Weather History for KHUT - November, 2013

Change the Weather History Date:

Saturday, November 16, 2013

  Actual Average Record
Temperature  
Mean Temperature 64 °F -  
Max Temperature 77 °F 54 °F 77 °F (2013)
Min Temperature 52 °F 30 °F 9 °F (1997)
Growing Degree Days 14 (Base 50)    
Moisture  
Dew Point 44 °F    
Average Humidity 52    
Maximum Humidity 80    
Minimum Humidity 22    
Precipitation  
Precipitation 0.00 in - - ()
Sea Level Pressure  
Sea Level Pressure 29.41 in    
Wind  
Wind Speed 18 mph (SSW)    
Max Wind Speed 26 mph    
Max Gust Speed 34 mph    
Visibility 10 miles    
Events      
Averages and records for this station are not official NWS values.
T = Trace of Precipitation, MM = Missing Value Source: NWS Daily Summary

Daily Weather History Graph

Daily Weather History Graph

Search for Another Location

Airport or City:

Trip Planner

Search our weather history database for the weather conditions in past years. The results will help you decide how hot, cold, wet, or windy it might be!

Date:

Astronomy

Nov. 16, 2013 Rise Set
Actual Time 7:13 AM CST 5:18 PM CST
Civil Twilight 6:45 AM CST 5:46 PM CST
Nautical Twilight 6:13 AM CST 6:18 PM CST
Astronomical Twilight 5:42 AM CST 6:49 PM CST
Moon 4:54 PM CST (11/16) 6:12 AM CST (11/16)
Length of Visible Light 11h 01m
Length of Day
10h 04m
Waxing Gibbous, 99% of the Moon is Illuminated
Nov 16
Waxing Gibbous
Nov 17
Full
Nov 25
Last Quarter
Dec 2
New
Dec 9
First Quarter

Hourly Weather History & Observations

Time (CST) Temp. Dew Point Humidity Pressure Visibility Wind Dir Wind Speed Gust Speed Precip Events Conditions
12:52 AM 52.0 °F 45.0 °F 77% 29.57 in 10.0 mi South 19.6 mph 26.5 mph N/A   Clear
1:52 AM 53.1 °F 46.0 °F 77% 29.54 in 10.0 mi South 20.7 mph 27.6 mph N/A   Clear
2:52 AM 53.1 °F 46.9 °F 80% 29.52 in 10.0 mi South 15.0 mph 21.9 mph N/A   Clear
3:52 AM 55.0 °F 48.9 °F 80% 29.49 in 10.0 mi South 19.6 mph 27.6 mph N/A   Clear
4:52 AM 57.0 °F 50.0 °F 77% 29.48 in 10.0 mi South 21.9 mph 27.6 mph N/A   Clear
5:52 AM 57.0 °F 48.9 °F 74% 29.46 in 10.0 mi South 20.7 mph 27.6 mph N/A   Clear
6:52 AM 55.9 °F 48.9 °F 77% 29.46 in 10.0 mi South 18.4 mph - N/A   Clear
7:52 AM 57.0 °F 48.9 °F 74% 29.45 in 10.0 mi SSW 18.4 mph 28.8 mph N/A   Clear
8:52 AM 59.0 °F 48.9 °F 69% 29.45 in 10.0 mi SSW 16.1 mph 25.3 mph N/A   Mostly Cloudy
9:52 AM 64.0 °F 48.0 °F 56% 29.46 in 10.0 mi SSW 23.0 mph 32.2 mph N/A   Clear
10:52 AM 69.1 °F 46.9 °F 45% 29.45 in 10.0 mi SSW 26.5 mph 34.5 mph N/A   Clear
11:52 AM 73.0 °F 46.9 °F 39% 29.42 in 10.0 mi SW 23.0 mph 29.9 mph N/A   Clear
12:52 PM 75.0 °F 44.1 °F 33% 29.38 in 10.0 mi SW 21.9 mph 29.9 mph N/A   Clear
1:52 PM 77.0 °F 42.1 °F 29% 29.35 in 10.0 mi WSW 19.6 mph 24.2 mph N/A   Partly Cloudy
2:52 PM 77.0 °F 39.0 °F 25% 29.32 in 10.0 mi SW 18.4 mph 25.3 mph N/A   Mostly Cloudy
3:52 PM 77.0 °F 39.0 °F 25% 29.31 in 10.0 mi WSW 15.0 mph - N/A   Clear
4:52 PM 75.0 °F 34.0 °F 22% 29.32 in 10.0 mi SW 11.5 mph 21.9 mph N/A   Scattered Clouds
5:52 PM 72.0 °F 33.1 °F 24% 29.34 in 10.0 mi SW 9.2 mph - N/A   Partly Cloudy
6:52 PM 64.0 °F 35.1 °F 34% 29.36 in 10.0 mi SSW 6.9 mph - N/A   Scattered Clouds
7:52 PM 63.0 °F 37.0 °F 38% 29.36 in 10.0 mi South 8.1 mph - N/A   Mostly Cloudy
8:52 PM 63.0 °F 42.1 °F 46% 29.36 in 10.0 mi South 15.0 mph - N/A   Clear
9:52 PM 62.1 °F 48.9 °F 62% 29.34 in 10.0 mi South 13.8 mph - N/A   Clear
10:52 PM 62.1 °F 46.0 °F 56% 29.31 in 10.0 mi South 17.3 mph - N/A   Clear
11:52 PM 64.9 °F 37.0 °F 36% 29.32 in 10.0 mi SW 17.3 mph - N/A   Clear